Sault Sainte Marie, MI

11:56 AM EST on February 10, 2016 (GMT -0500)
Sault Ste Marie Municipal / Sanderson Field

Weather History for KANJ - November, 2012

Change the Weather History Date:

Thursday, November 1, 2012

  Actual Average Record
Temperature  
Mean Temperature 36 °F 40 °F  
Max Temperature 40 °F 46 °F 66 °F (1999)
Min Temperature 32 °F 33 °F 19 °F (1911)
Degree Days  
Heating Degree Days 29 25  
Month to date heating degree days 29 25  
Since 1 July heating degree days 936 1030  
Cooling Degree Days 0 0  
Month to date cooling degree days 0 0  
Year to date cooling degree days 402 196  
Moisture  
Dew Point 30 °F    
Average Humidity 76    
Maximum Humidity 92    
Minimum Humidity 59    
Precipitation  
Precipitation 0.01 in 0.12 in 1.65 in (1984)
Month to date precipitation 0.01 0.12  
Year to date precipitation 24.26 26.91  
Snow  
Snow T in 0.20 in 4.60 in (1996)
Month to date snowfall T 0.2  
Since 1 July snowfall 5.9 1.8  
Snow Depth 0.00 in    
Sea Level Pressure  
Sea Level Pressure 29.66 in    
Wind  
Wind Speed 13 mph (NNW)    
Max Wind Speed 21 mph    
Max Gust Speed 28 mph    
Visibility 10 miles    
Events Rain    
T = Trace of Precipitation, MM = Missing Value Source: NWS Daily Summary

Daily Weather History Graph

Daily Weather History Graph

Search for Another Location

Airport or City:

Trip Planner

Search our weather history database for the weather conditions in past years. The results will help you decide how hot, cold, wet, or windy it might be!

Date:

Astronomy

Nov. 01, 2012 Rise Set
Actual Time 8:19 AM EDT 6:21 PM EDT
Civil Twilight 7:48 AM EDT 6:53 PM EDT
Nautical Twilight 7:12 AM EDT 7:28 PM EDT
Astronomical Twilight 6:37 AM EDT 8:03 PM EDT
Moon 8:10 PM EDT (11/1) 10:59 AM EDT (11/1)
Length of Visible Light 11h 05m
Length of Day
10h 01m
Waning Gibbous, 93% of the Moon is Illuminated
Nov 1
Waning Gibbous
Nov 6
Last Quarter
Nov 13
New
Nov 20
First Quarter
Nov 28
Full

Hourly Weather History & Observations

Time (EDT) Temp. Windchill Dew Point Humidity Pressure Visibility Wind Dir Wind Speed Gust Speed Precip Events Conditions
12:55 AM 36.0 °F 27.5 °F 28.9 °F 76% 29.63 in 10.0 mi NNW 12.7 mph 24.2 mph N/A   Overcast
1:55 AM 36.0 °F 27.1 °F 28.0 °F 73% 29.63 in 10.0 mi NNW 13.8 mph 23.0 mph N/A   Overcast
2:55 AM 36.0 °F 27.1 °F 28.9 °F 76% 29.62 in 10.0 mi NNW 13.8 mph 20.7 mph N/A   Overcast
3:55 AM 36.0 °F 28.0 °F 28.9 °F 76% 29.61 in 10.0 mi NNW 11.5 mph - N/A   Overcast
4:45 AM 36.0 °F 27.1 °F 28.0 °F 73% 29.60 in 10.0 mi NNW 13.8 mph 23.0 mph N/A   Overcast
4:55 AM 36.0 °F 26.7 °F 28.0 °F 73% 29.62 in 10.0 mi NNW 15.0 mph 20.7 mph N/A   Overcast
5:10 AM 36.0 °F 28.5 °F 28.0 °F 73% 29.60 in 10.0 mi NNW 10.4 mph 21.9 mph N/A   Overcast
5:55 AM 36.0 °F 27.5 °F 28.9 °F 76% 29.62 in 10.0 mi NNW 12.7 mph 18.4 mph N/A   Overcast
6:55 AM 36.0 °F 28.5 °F 30.0 °F 79% 29.62 in 10.0 mi NNW 10.4 mph - N/A   Mostly Cloudy
7:11 AM 36.0 °F 29.0 °F 30.0 °F 79% 29.60 in 10.0 mi NNW 9.2 mph - N/A   Overcast
7:55 AM 37.0 °F 29.8 °F 30.9 °F 79% 29.62 in 10.0 mi NW 10.4 mph - N/A   Overcast
8:18 AM 36.0 °F 28.0 °F 32.0 °F 86% 29.61 in 9.0 mi NW 11.5 mph - N/A   Overcast
8:27 AM 36.0 °F 30.3 °F 33.1 °F 89% 29.61 in 7.0 mi NNW 6.9 mph - N/A   Overcast
8:46 AM 36.0 °F 29.6 °F 33.1 °F 89% 29.61 in 4.0 mi NNW 8.1 mph - 0.00 in Rain Light Rain
8:55 AM 36.0 °F 29.0 °F 33.1 °F 89% 29.63 in 5.0 mi NNW 9.2 mph - 0.00 in Rain Light Rain
9:24 AM 37.0 °F 31.0 °F 33.1 °F 86% 29.62 in 8.0 mi NNW 8.1 mph - 0.00 in Rain Light Rain
9:55 AM 37.9 °F 31.5 °F 33.1 °F 83% 29.63 in 10.0 mi NNW 9.2 mph 18.4 mph 0.00 in Rain Light Rain
10:55 AM 37.9 °F 29.6 °F 34.0 °F 86% 29.64 in 10.0 mi NW 13.8 mph 18.4 mph 0.00 in   Overcast
11:55 AM 39.0 °F 31.8 °F 33.1 °F 79% 29.64 in 10.0 mi NW 11.5 mph 20.7 mph 0.00 in   Overcast
12:15 PM 37.9 °F 30.0 °F 33.1 °F 83% 29.63 in 7.0 mi NW 12.7 mph - 0.00 in Rain Light Rain
12:55 PM 39.0 °F 30.6 °F 33.1 °F 79% 29.64 in 10.0 mi NW 15.0 mph 21.9 mph 0.00 in   Overcast
1:55 PM 37.9 °F 28.5 °F 32.0 °F 79% 29.64 in 9.0 mi NW 17.3 mph 25.3 mph 0.00 in Rain Light Rain
2:55 PM 39.0 °F 31.4 °F 34.0 °F 82% 29.63 in 10.0 mi NW 12.7 mph 25.3 mph 0.01 in Rain Light Rain
3:55 PM 37.0 °F 28.1 °F 33.1 °F 86% 29.65 in 9.0 mi NW 15.0 mph 24.2 mph 0.00 in Rain Light Rain
4:43 PM 37.9 °F 29.2 °F 32.0 °F 79% 29.64 in 10.0 mi NNW 15.0 mph 24.2 mph 0.00 in Rain Light Rain
4:55 PM 37.9 °F 29.6 °F 30.9 °F 76% 29.66 in 10.0 mi NNW 13.8 mph 23.0 mph 0.00 in   Overcast
5:14 PM 37.9 °F 29.2 °F 28.9 °F 70% 29.65 in 10.0 mi NNW 15.0 mph 27.6 mph N/A   Mostly Cloudy
5:55 PM 37.0 °F 29.8 °F 28.9 °F 73% 29.69 in 10.0 mi NNW 10.4 mph 21.9 mph N/A   Overcast
6:55 PM 36.0 °F 26.3 °F 27.0 °F 70% 29.70 in 10.0 mi NNW 16.1 mph 21.9 mph N/A   Overcast
7:03 PM 36.0 °F 27.1 °F 27.0 °F 70% 29.69 in 10.0 mi North 13.8 mph 21.9 mph N/A   Overcast
7:20 PM 36.0 °F 26.3 °F 26.1 °F 67% 29.70 in 10.0 mi NNW 16.1 mph 20.7 mph N/A   Overcast
7:55 PM 35.1 °F 27.9 °F 26.1 °F 70% 29.73 in 10.0 mi NNW 9.2 mph 23.0 mph N/A   Overcast
8:55 PM 35.1 °F 26.9 °F 24.1 °F 64% 29.75 in 10.0 mi NNW 11.5 mph 18.4 mph N/A   Overcast
9:55 PM 35.1 °F 25.2 °F 23.0 °F 61% 29.76 in 10.0 mi NNW 16.1 mph 21.9 mph N/A   Overcast
10:55 PM 33.1 °F 23.4 °F 21.9 °F 64% 29.78 in 10.0 mi North 13.8 mph 23.0 mph N/A   Overcast
11:55 PM 32.0 °F 23.0 °F 21.9 °F 66% 29.80 in 10.0 mi NNW 11.5 mph 20.7 mph N/A   Overcast